Year,Month,Day,Hour,Minute,Value (Times are PST for temperature in C)
2020,07,27,00,00,21.10
2020,07,27,00,01,21.10
2020,07,27,00,02,21.00
2020,07,27,00,03,21.00
2020,07,27,00,04,21.00
2020,07,27,00,05,20.90
2020,07,27,00,06,20.90
2020,07,27,00,07,20.90
2020,07,27,00,08,20.90
2020,07,27,00,09,20.90
2020,07,27,00,10,21.00
2020,07,27,00,11,21.00
2020,07,27,00,12,21.00
2020,07,27,00,13,21.00
2020,07,27,00,14,21.00
2020,07,27,00,15,21.00
2020,07,27,00,16,21.00
2020,07,27,00,17,21.00
2020,07,27,00,18,20.90
2020,07,27,00,19,20.90
2020,07,27,00,20,20.80
2020,07,27,00,21,20.80
2020,07,27,00,22,20.70
2020,07,27,00,23,20.70
2020,07,27,00,24,20.60
2020,07,27,00,25,20.60
2020,07,27,00,26,20.50
2020,07,27,00,27,20.40
2020,07,27,00,28,20.30
2020,07,27,00,29,20.20
2020,07,27,00,30,20.20
2020,07,27,00,31,20.20
2020,07,27,00,32,20.10
2020,07,27,00,33,20.00
2020,07,27,00,34,19.90
2020,07,27,00,35,19.90
2020,07,27,00,36,19.80
2020,07,27,00,37,19.80
2020,07,27,00,38,19.70
2020,07,27,00,39,19.70
2020,07,27,00,40,19.70
2020,07,27,00,41,19.70
2020,07,27,00,42,19.60
2020,07,27,00,43,19.60
2020,07,27,00,44,19.60
2020,07,27,00,45,19.60
2020,07,27,00,46,19.50
2020,07,27,00,47,19.50
2020,07,27,00,48,19.50
2020,07,27,00,49,19.50
2020,07,27,00,50,19.40
2020,07,27,00,51,19.40
2020,07,27,00,52,19.40
2020,07,27,00,53,19.40
2020,07,27,00,54,19.30
2020,07,27,00,55,19.30
2020,07,27,00,56,19.30
2020,07,27,00,57,19.20
2020,07,27,00,58,19.20
2020,07,27,00,59,19.10
2020,07,27,01,00,19.10
2020,07,27,01,01,19.10
2020,07,27,01,02,19.10
2020,07,27,01,03,19.10
2020,07,27,01,04,19.00
2020,07,27,01,05,18.90
2020,07,27,01,06,18.90
2020,07,27,01,07,18.90
2020,07,27,01,08,18.90
2020,07,27,01,09,18.90
2020,07,27,01,10,18.80
2020,07,27,01,11,18.80
2020,07,27,01,12,18.80
2020,07,27,01,13,18.70
2020,07,27,01,14,18.70
2020,07,27,01,15,18.60
2020,07,27,01,16,18.60
2020,07,27,01,17,18.60
2020,07,27,01,18,18.60
2020,07,27,01,19,18.50
2020,07,27,01,20,18.50
2020,07,27,01,21,18.50
2020,07,27,01,22,18.50
2020,07,27,01,23,18.50
2020,07,27,01,24,18.50
2020,07,27,01,25,18.50
2020,07,27,01,26,18.50
2020,07,27,01,27,18.50
2020,07,27,01,28,18.50
2020,07,27,01,29,18.50
2020,07,27,01,30,18.40
2020,07,27,01,31,18.40
2020,07,27,01,32,18.40
2020,07,27,01,33,18.40
2020,07,27,01,34,18.40
2020,07,27,01,35,18.40
2020,07,27,01,36,18.30
2020,07,27,01,37,18.30
2020,07,27,01,38,18.30
2020,07,27,01,39,18.30
2020,07,27,01,40,18.30
2020,07,27,01,41,18.30
2020,07,27,01,42,18.20
2020,07,27,01,43,18.20
2020,07,27,01,44,18.20
2020,07,27,01,45,18.20
2020,07,27,01,46,18.20
2020,07,27,01,47,18.20
2020,07,27,01,48,18.20
2020,07,27,01,49,18.20
2020,07,27,01,50,18.20
2020,07,27,01,51,18.20
2020,07,27,01,52,18.20
2020,07,27,01,53,18.20
2020,07,27,01,54,18.20
2020,07,27,01,55,18.20
2020,07,27,01,56,18.20
2020,07,27,01,57,18.20
2020,07,27,01,58,18.20
2020,07,27,01,59,18.20
2020,07,27,02,00,18.20
2020,07,27,02,01,18.20
2020,07,27,02,02,18.20
2020,07,27,02,03,18.20
2020,07,27,02,04,18.30
2020,07,27,02,05,18.30
2020,07,27,02,06,18.30
2020,07,27,02,07,18.30
2020,07,27,02,08,18.40
2020,07,27,02,09,18.40
2020,07,27,02,10,18.40
2020,07,27,02,11,18.40
2020,07,27,02,12,18.50
2020,07,27,02,13,18.50
2020,07,27,02,14,18.50
2020,07,27,02,15,18.50
2020,07,27,02,16,18.50
2020,07,27,02,17,18.60
2020,07,27,02,18,18.60
2020,07,27,02,19,18.60
2020,07,27,02,20,18.60
2020,07,27,02,21,18.60
2020,07,27,02,22,18.60
2020,07,27,02,23,18.60
2020,07,27,02,24,18.60
2020,07,27,02,25,18.60
2020,07,27,02,26,18.60
2020,07,27,02,27,18.60
2020,07,27,02,28,18.70
2020,07,27,02,29,18.70
2020,07,27,02,30,18.70
2020,07,27,02,31,18.80
2020,07,27,02,32,18.80
2020,07,27,02,33,18.90
2020,07,27,02,34,18.90
2020,07,27,02,35,18.90
2020,07,27,02,36,18.90
2020,07,27,02,37,18.90
2020,07,27,02,38,18.90
2020,07,27,02,39,18.90
2020,07,27,02,40,19.00
2020,07,27,02,41,19.10
2020,07,27,02,42,19.10
2020,07,27,02,43,19.10
2020,07,27,02,44,19.10
2020,07,27,02,45,19.10
2020,07,27,02,46,19.10
2020,07,27,02,47,19.10
2020,07,27,02,48,19.10
2020,07,27,02,49,19.10
2020,07,27,02,50,19.10
2020,07,27,02,51,19.10
2020,07,27,02,52,19.10
2020,07,27,02,53,19.10
2020,07,27,02,54,19.10
2020,07,27,02,55,19.10
2020,07,27,02,56,19.10
2020,07,27,02,57,19.10
2020,07,27,02,58,19.10
2020,07,27,02,59,19.10
2020,07,27,03,00,19.10
2020,07,27,03,01,19.10
2020,07,27,03,02,19.10
2020,07,27,03,03,19.10
2020,07,27,03,04,19.10
2020,07,27,03,05,19.10
2020,07,27,03,06,19.20
2020,07,27,03,07,19.20
2020,07,27,03,08,19.20
2020,07,27,03,09,19.20
2020,07,27,03,10,19.20
2020,07,27,03,11,19.20
2020,07,27,03,12,19.20
2020,07,27,03,13,19.20
2020,07,27,03,14,19.10
2020,07,27,03,15,19.10
2020,07,27,03,16,19.10
2020,07,27,03,17,19.10
2020,07,27,03,18,19.10
2020,07,27,03,19,19.00
2020,07,27,03,20,18.90
2020,07,27,03,21,18.90
2020,07,27,03,22,18.90
2020,07,27,03,23,18.90
2020,07,27,03,24,18.90
2020,07,27,03,25,18.90
2020,07,27,03,26,18.90
2020,07,27,03,27,18.90
2020,07,27,03,28,18.90
2020,07,27,03,29,18.90
2020,07,27,03,30,18.90
2020,07,27,03,31,18.90
2020,07,27,03,32,18.90
2020,07,27,03,33,18.90
2020,07,27,03,34,18.90
2020,07,27,03,35,18.90
2020,07,27,03,36,18.80
2020,07,27,03,37,18.80
2020,07,27,03,38,18.80
2020,07,27,03,39,18.70
2020,07,27,03,40,18.70
2020,07,27,03,41,18.70
2020,07,27,03,42,18.60
2020,07,27,03,43,18.60
2020,07,27,03,44,18.50
2020,07,27,03,45,18.50
2020,07,27,03,46,18.60
2020,07,27,03,47,18.60
2020,07,27,03,48,18.60
2020,07,27,03,49,18.60
2020,07,27,03,50,18.50
2020,07,27,03,51,18.50
2020,07,27,03,52,18.50
2020,07,27,03,53,18.50
2020,07,27,03,54,18.50
2020,07,27,03,55,18.40
2020,07,27,03,56,18.40
2020,07,27,03,57,18.30
2020,07,27,03,58,18.30
2020,07,27,03,59,18.30
2020,07,27,04,00,18.30
2020,07,27,04,01,18.20
2020,07,27,04,02,18.30
2020,07,27,04,03,18.30
2020,07,27,04,04,18.30
2020,07,27,04,05,18.30
2020,07,27,04,06,18.30
2020,07,27,04,07,18.20
2020,07,27,04,08,18.20
2020,07,27,04,09,18.30
2020,07,27,04,10,18.30
2020,07,27,04,11,18.30
2020,07,27,04,12,18.30
2020,07,27,04,13,18.30
2020,07,27,04,14,18.30
2020,07,27,04,15,18.30
2020,07,27,04,16,18.30
2020,07,27,04,17,18.20
2020,07,27,04,18,18.20
2020,07,27,04,19,18.20
2020,07,27,04,20,18.20
2020,07,27,04,21,18.20
2020,07,27,04,22,18.20
2020,07,27,04,23,18.20
2020,07,27,04,24,18.20
2020,07,27,04,25,18.20
2020,07,27,04,26,18.10
2020,07,27,04,27,18.10
2020,07,27,04,28,18.20
2020,07,27,04,29,18.20
2020,07,27,04,30,18.20
2020,07,27,04,31,18.20
2020,07,27,04,32,18.20
2020,07,27,04,33,18.20
2020,07,27,04,34,18.20
2020,07,27,04,35,18.20
2020,07,27,04,36,18.10
2020,07,27,04,37,18.10
2020,07,27,04,38,18.10
2020,07,27,04,39,18.10
2020,07,27,04,40,18.10
2020,07,27,04,41,18.10
2020,07,27,04,42,18.00
2020,07,27,04,43,17.90
2020,07,27,04,44,17.90
2020,07,27,04,45,17.90
2020,07,27,04,46,17.90
2020,07,27,04,47,17.90
2020,07,27,04,48,17.90
2020,07,27,04,49,17.90
2020,07,27,04,50,17.80
2020,07,27,04,51,17.80
2020,07,27,04,52,17.70
2020,07,27,04,53,17.70
2020,07,27,04,54,17.70
2020,07,27,04,55,17.70
2020,07,27,04,56,17.60
2020,07,27,04,57,17.60
2020,07,27,04,58,17.60
2020,07,27,04,59,17.50
2020,07,27,05,00,17.50
2020,07,27,05,01,17.50
2020,07,27,05,02,17.50
2020,07,27,05,03,17.50
2020,07,27,05,04,17.40
2020,07,27,05,05,17.40
2020,07,27,05,06,17.40
2020,07,27,05,07,17.40
2020,07,27,05,08,17.30
2020,07,27,05,09,17.30
2020,07,27,05,10,17.30
2020,07,27,05,11,17.30
2020,07,27,05,12,17.30
2020,07,27,05,13,17.30
2020,07,27,05,14,17.30
2020,07,27,05,15,17.30
2020,07,27,05,16,17.30
2020,07,27,05,17,17.30
2020,07,27,05,18,17.40
2020,07,27,05,19,17.40
2020,07,27,05,20,17.50
2020,07,27,05,21,17.50
2020,07,27,05,22,17.60
2020,07,27,05,23,17.70
2020,07,27,05,24,17.70
2020,07,27,05,25,17.80
2020,07,27,05,26,17.90
2020,07,27,05,27,17.90
2020,07,27,05,28,18.00
2020,07,27,05,29,18.10
2020,07,27,05,30,18.20
2020,07,27,05,31,18.20
2020,07,27,05,32,18.20
2020,07,27,05,33,18.20
2020,07,27,05,34,18.30
2020,07,27,05,35,18.30
2020,07,27,05,36,18.40
2020,07,27,05,37,18.40
2020,07,27,05,38,18.40
2020,07,27,05,39,18.40
2020,07,27,05,40,18.50
2020,07,27,05,41,18.50
2020,07,27,05,42,18.50
2020,07,27,05,43,18.50
2020,07,27,05,44,18.50
2020,07,27,05,45,18.50
2020,07,27,05,46,18.50
2020,07,27,05,47,18.50
2020,07,27,05,48,18.50
2020,07,27,05,49,18.50
2020,07,27,05,50,18.50
2020,07,27,05,51,18.50
2020,07,27,05,52,18.50
2020,07,27,05,53,18.50
2020,07,27,05,54,18.50
2020,07,27,05,55,18.50
2020,07,27,05,56,18.50
2020,07,27,05,57,18.60
2020,07,27,05,58,18.60
2020,07,27,05,59,18.60
2020,07,27,06,00,18.60
2020,07,27,06,01,18.60
2020,07,27,06,02,18.60
2020,07,27,06,03,18.60
2020,07,27,06,04,18.60
2020,07,27,06,05,18.60
2020,07,27,06,06,18.50
2020,07,27,06,07,18.50
2020,07,27,06,08,18.50
2020,07,27,06,09,18.40
2020,07,27,06,10,18.40
2020,07,27,06,11,18.30
2020,07,27,06,12,18.30
2020,07,27,06,13,18.20
2020,07,27,06,14,18.20
2020,07,27,06,15,18.10
2020,07,27,06,16,17.90
2020,07,27,06,17,17.90
2020,07,27,06,18,17.80
2020,07,27,06,19,17.60
2020,07,27,06,20,17.50
2020,07,27,06,21,17.40
2020,07,27,06,22,17.40
2020,07,27,06,23,17.30
2020,07,27,06,24,17.30
2020,07,27,06,25,17.30
2020,07,27,06,26,17.30
2020,07,27,06,27,17.40
2020,07,27,06,28,17.40
2020,07,27,06,29,17.40
2020,07,27,06,30,17.40
2020,07,27,06,31,17.40
2020,07,27,06,32,17.50
2020,07,27,06,33,17.50
2020,07,27,06,34,17.60
2020,07,27,06,35,17.60
2020,07,27,06,36,17.70
2020,07,27,06,37,17.70
2020,07,27,06,38,17.80
2020,07,27,06,39,17.80
2020,07,27,06,40,17.90
2020,07,27,06,41,17.90
2020,07,27,06,42,17.90
2020,07,27,06,43,17.90
2020,07,27,06,44,18.00
2020,07,27,06,45,18.10
2020,07,27,06,46,18.10
2020,07,27,06,47,18.10
2020,07,27,06,48,18.20
2020,07,27,06,49,18.20
2020,07,27,06,50,18.20
2020,07,27,06,51,18.20
2020,07,27,06,52,18.30
2020,07,27,06,53,18.30
2020,07,27,06,54,18.30
2020,07,27,06,55,18.40
2020,07,27,06,56,18.40
2020,07,27,06,57,18.50
2020,07,27,06,58,18.60
2020,07,27,06,59,18.60
2020,07,27,07,00,18.70
2020,07,27,07,01,18.70
2020,07,27,07,02,18.80
2020,07,27,07,03,18.80
2020,07,27,07,04,18.90
2020,07,27,07,05,18.90
2020,07,27,07,06,18.90
2020,07,27,07,07,19.00
2020,07,27,07,08,19.10
2020,07,27,07,09,19.10
2020,07,27,07,10,19.10
2020,07,27,07,11,19.10
2020,07,27,07,12,19.20
2020,07,27,07,13,19.20
2020,07,27,07,14,19.30
2020,07,27,07,15,19.30
2020,07,27,07,16,19.30
2020,07,27,07,17,19.30
2020,07,27,07,18,19.30
2020,07,27,07,19,19.30
2020,07,27,07,20,19.40
2020,07,27,07,21,19.40
2020,07,27,07,22,19.40
2020,07,27,07,23,19.50
2020,07,27,07,24,19.50
2020,07,27,07,25,19.50
2020,07,27,07,26,19.60
2020,07,27,07,27,19.60
2020,07,27,07,28,19.60
2020,07,27,07,29,19.70
2020,07,27,07,30,19.70
2020,07,27,07,31,19.70
2020,07,27,07,32,19.70
2020,07,27,07,33,19.80
2020,07,27,07,34,19.80
2020,07,27,07,35,19.80
2020,07,27,07,36,19.90
2020,07,27,07,37,19.90
2020,07,27,07,38,19.90
2020,07,27,07,39,19.90
2020,07,27,07,40,19.90
2020,07,27,07,41,19.90
2020,07,27,07,42,19.90
2020,07,27,07,43,19.90
2020,07,27,07,44,19.90
2020,07,27,07,45,19.90
2020,07,27,07,46,19.90
2020,07,27,07,47,19.90
2020,07,27,07,48,20.00
2020,07,27,07,49,20.10
2020,07,27,07,50,20.10
2020,07,27,07,51,20.10
2020,07,27,07,52,20.20
2020,07,27,07,53,20.20
2020,07,27,07,54,20.20
2020,07,27,07,55,20.20
2020,07,27,07,56,20.20
2020,07,27,07,57,20.20
2020,07,27,07,58,20.20
2020,07,27,07,59,20.30
2020,07,27,08,00,20.30
2020,07,27,08,01,20.40
2020,07,27,08,02,20.50
2020,07,27,08,03,20.50
2020,07,27,08,04,20.50
2020,07,27,08,05,20.60
2020,07,27,08,06,20.60
2020,07,27,08,07,20.60
2020,07,27,08,08,20.60
2020,07,27,08,09,20.60
2020,07,27,08,10,20.60
2020,07,27,08,11,20.50
2020,07,27,08,12,20.50
2020,07,27,08,13,20.50
2020,07,27,08,14,20.50
2020,07,27,08,15,20.50
2020,07,27,08,16,20.50
2020,07,27,08,17,20.60
2020,07,27,08,18,20.60
2020,07,27,08,19,20.70
2020,07,27,08,20,20.80
2020,07,27,08,21,20.80
2020,07,27,08,22,20.90
2020,07,27,08,23,21.00
2020,07,27,08,24,21.00
2020,07,27,08,25,21.00
2020,07,27,08,26,21.10
2020,07,27,08,27,21.10
2020,07,27,08,28,21.10
2020,07,27,08,29,21.00
2020,07,27,08,30,21.00
2020,07,27,08,31,21.00
2020,07,27,08,32,21.00
2020,07,27,08,33,21.00
2020,07,27,08,34,20.90
2020,07,27,08,35,20.90
2020,07,27,08,36,20.90
2020,07,27,08,37,20.90
2020,07,27,08,38,20.90
2020,07,27,08,39,20.90
2020,07,27,08,40,21.00
2020,07,27,08,41,21.00
2020,07,27,08,42,21.10
2020,07,27,08,43,21.10
2020,07,27,08,44,21.20
2020,07,27,08,45,21.30
2020,07,27,08,46,21.30
2020,07,27,08,47,21.30
2020,07,27,08,48,21.30
2020,07,27,08,49,21.30
2020,07,27,08,50,21.40
2020,07,27,08,51,21.40
2020,07,27,08,52,21.50
2020,07,27,08,53,21.60
2020,07,27,08,54,21.50
2020,07,27,08,55,21.40
2020,07,27,08,56,21.50
2020,07,27,08,57,21.60
2020,07,27,08,58,21.60
2020,07,27,08,59,21.60
2020,07,27,09,00,21.60
2020,07,27,09,01,21.70
2020,07,27,09,02,21.70
2020,07,27,09,03,21.70
2020,07,27,09,04,21.80
2020,07,27,09,05,21.90
2020,07,27,09,06,21.90
2020,07,27,09,07,22.00
2020,07,27,09,08,22.00
2020,07,27,09,09,22.00
2020,07,27,09,10,22.00
2020,07,27,09,11,22.00
2020,07,27,09,12,22.10
2020,07,27,09,13,22.10
2020,07,27,09,14,22.10
2020,07,27,09,15,22.10
2020,07,27,09,16,22.10
2020,07,27,09,17,22.10
2020,07,27,09,18,22.10
2020,07,27,09,19,22.10
2020,07,27,09,20,22.10
2020,07,27,09,21,22.10
2020,07,27,09,22,22.10
2020,07,27,09,23,22.10
2020,07,27,09,24,22.10
2020,07,27,09,25,22.20
2020,07,27,09,26,22.20
2020,07,27,09,27,22.30
2020,07,27,09,28,22.30
2020,07,27,09,29,22.40
2020,07,27,09,30,22.40
2020,07,27,09,31,22.40
2020,07,27,09,32,22.50
2020,07,27,09,33,22.50
2020,07,27,09,34,22.50
2020,07,27,09,35,22.40
2020,07,27,09,36,22.30
2020,07,27,09,37,22.20
2020,07,27,09,38,22.20
2020,07,27,09,39,22.20
2020,07,27,09,40,22.30
2020,07,27,09,41,22.40
2020,07,27,09,42,22.40
2020,07,27,09,43,22.50
2020,07,27,09,44,22.50
2020,07,27,09,45,22.50
2020,07,27,09,46,22.60
2020,07,27,09,47,22.60
2020,07,27,09,48,22.60
2020,07,27,09,49,22.70
2020,07,27,09,50,22.70
2020,07,27,09,51,22.60
2020,07,27,09,52,22.50
2020,07,27,09,53,22.40
2020,07,27,09,54,22.40
2020,07,27,09,55,22.40
2020,07,27,09,56,22.50
2020,07,27,09,57,22.60
2020,07,27,09,58,22.70
2020,07,27,09,59,22.80
2020,07,27,10,00,22.90
2020,07,27,10,01,23.00
2020,07,27,10,02,23.10
2020,07,27,10,03,23.10
2020,07,27,10,04,23.20
2020,07,27,10,05,23.20
2020,07,27,10,06,23.20
2020,07,27,10,07,23.30
2020,07,27,10,08,23.30
2020,07,27,10,09,23.30
2020,07,27,10,10,23.30
2020,07,27,10,11,23.30
2020,07,27,10,12,23.30
2020,07,27,10,13,23.30
2020,07,27,10,14,23.30
2020,07,27,10,15,23.20
2020,07,27,10,16,23.10
2020,07,27,10,17,23.10
2020,07,27,10,18,23.10
2020,07,27,10,19,23.10
2020,07,27,10,20,23.10
2020,07,27,10,21,23.10
2020,07,27,10,22,23.10
2020,07,27,10,23,23.10
2020,07,27,10,24,22.90
2020,07,27,10,25,22.80
2020,07,27,10,26,22.70
2020,07,27,10,27,22.60
2020,07,27,10,28,22.50
2020,07,27,10,29,22.50
2020,07,27,10,30,22.40
2020,07,27,10,31,22.40
2020,07,27,10,32,22.40
2020,07,27,10,33,22.30
2020,07,27,10,34,22.30
2020,07,27,10,35,22.30
2020,07,27,10,36,22.30
2020,07,27,10,37,22.30
2020,07,27,10,38,22.30
2020,07,27,10,39,22.30
2020,07,27,10,40,22.40
2020,07,27,10,41,22.50
2020,07,27,10,42,22.50
2020,07,27,10,43,22.50
2020,07,27,10,44,22.60
2020,07,27,10,45,22.70
2020,07,27,10,46,22.80
2020,07,27,10,47,22.80
2020,07,27,10,48,22.80
2020,07,27,10,49,22.70
2020,07,27,10,50,22.70
2020,07,27,10,51,22.70
2020,07,27,10,52,22.80
2020,07,27,10,53,22.80
2020,07,27,10,54,22.90
2020,07,27,10,55,22.90
2020,07,27,10,56,23.10
2020,07,27,10,57,23.20
2020,07,27,10,58,23.20
2020,07,27,10,59,23.30
2020,07,27,11,00,23.30
2020,07,27,11,01,23.30
2020,07,27,11,02,23.30
2020,07,27,11,03,23.30
2020,07,27,11,04,23.30
2020,07,27,11,05,23.30
2020,07,27,11,06,23.20
2020,07,27,11,07,23.20
2020,07,27,11,08,23.10
2020,07,27,11,09,23.00
2020,07,27,11,10,22.90
2020,07,27,11,11,23.00
2020,07,27,11,12,23.10
2020,07,27,11,13,23.20
2020,07,27,11,14,23.30
2020,07,27,11,15,23.40
2020,07,27,11,16,23.60
2020,07,27,11,17,23.70
2020,07,27,11,18,23.80
2020,07,27,11,19,23.90
2020,07,27,11,20,23.90
2020,07,27,11,21,23.90
2020,07,27,11,22,23.80
2020,07,27,11,23,23.80
2020,07,27,11,24,23.70
2020,07,27,11,25,23.70
2020,07,27,11,26,23.80
2020,07,27,11,27,23.80
2020,07,27,11,28,24.00
2020,07,27,11,29,24.10
2020,07,27,11,30,24.10
2020,07,27,11,31,23.90
2020,07,27,11,32,24.00
2020,07,27,11,33,24.10
2020,07,27,11,34,24.10
2020,07,27,11,35,24.00
2020,07,27,11,36,23.90
2020,07,27,11,37,23.80
2020,07,27,11,38,23.80
2020,07,27,11,39,23.80
2020,07,27,11,40,23.70
2020,07,27,11,41,23.70
2020,07,27,11,42,23.70
2020,07,27,11,43,23.70
2020,07,27,11,44,23.70
2020,07,27,11,45,23.80
2020,07,27,11,46,23.90
2020,07,27,11,47,24.10
2020,07,27,11,48,24.30
2020,07,27,11,49,24.40
2020,07,27,11,50,24.50
2020,07,27,11,51,24.60
2020,07,27,11,52,24.70
2020,07,27,11,53,24.90
2020,07,27,11,54,25.00
2020,07,27,11,55,25.10
2020,07,27,11,56,25.10
2020,07,27,11,57,25.10
2020,07,27,11,58,25.10
2020,07,27,11,59,25.00
2020,07,27,12,00,24.90
2020,07,27,12,01,24.80
2020,07,27,12,02,24.80
2020,07,27,12,03,24.70
2020,07,27,12,04,24.70
2020,07,27,12,05,24.80
2020,07,27,12,06,24.80
2020,07,27,12,07,24.90
2020,07,27,12,08,25.00
2020,07,27,12,09,25.00
2020,07,27,12,10,25.10
2020,07,27,12,11,25.00
2020,07,27,12,12,25.00
2020,07,27,12,13,25.00
2020,07,27,12,14,25.10
2020,07,27,12,15,25.10
2020,07,27,12,16,25.20
2020,07,27,12,17,25.20
2020,07,27,12,18,25.20
2020,07,27,12,19,25.20
2020,07,27,12,20,25.10
2020,07,27,12,21,25.00
2020,07,27,12,22,25.00
2020,07,27,12,23,25.00
2020,07,27,12,24,25.10
2020,07,27,12,25,25.10
2020,07,27,12,26,25.20
2020,07,27,12,27,25.20
2020,07,27,12,28,25.20
2020,07,27,12,29,25.10
2020,07,27,12,30,25.00
2020,07,27,12,31,24.90
2020,07,27,12,32,24.90
2020,07,27,12,33,24.90
2020,07,27,12,34,24.80
2020,07,27,12,35,24.80
2020,07,27,12,36,24.70
2020,07,27,12,37,24.70
2020,07,27,12,38,24.60
2020,07,27,12,39,24.60
2020,07,27,12,40,24.60
2020,07,27,12,41,24.60
2020,07,27,12,42,24.60
2020,07,27,12,43,24.70
2020,07,27,12,44,24.70
2020,07,27,12,45,24.90
2020,07,27,12,46,24.90
2020,07,27,12,47,25.00
2020,07,27,12,48,25.20
2020,07,27,12,49,25.30
2020,07,27,12,50,25.30
2020,07,27,12,51,25.40
2020,07,27,12,52,25.50
2020,07,27,12,53,25.60
2020,07,27,12,54,25.70
2020,07,27,12,55,25.70
2020,07,27,12,56,25.70
2020,07,27,12,57,25.60
2020,07,27,12,58,25.50
2020,07,27,12,59,25.50
2020,07,27,13,00,25.40
2020,07,27,13,01,25.40
2020,07,27,13,02,25.50
2020,07,27,13,03,25.60
2020,07,27,13,04,25.70
2020,07,27,13,05,25.80
2020,07,27,13,06,25.90
2020,07,27,13,07,25.90
2020,07,27,13,08,26.00
2020,07,27,13,09,26.00
2020,07,27,13,10,26.00
2020,07,27,13,11,26.00
2020,07,27,13,12,26.10
2020,07,27,13,13,26.20
2020,07,27,13,14,26.30
2020,07,27,13,15,26.40
2020,07,27,13,16,26.40
2020,07,27,13,17,26.60
2020,07,27,13,18,26.60
2020,07,27,13,19,26.60
2020,07,27,13,20,26.70
2020,07,27,13,21,26.80
2020,07,27,13,22,26.80
2020,07,27,13,23,26.80
2020,07,27,13,24,26.80
2020,07,27,13,25,26.90
2020,07,27,13,26,27.00
2020,07,27,13,27,27.10
2020,07,27,13,28,27.10
2020,07,27,13,29,27.10
2020,07,27,13,30,27.20
2020,07,27,13,31,27.20
2020,07,27,13,32,27.30
2020,07,27,13,33,27.30
2020,07,27,13,34,27.30
2020,07,27,13,35,27.30
2020,07,27,13,36,27.30
2020,07,27,13,37,27.30
2020,07,27,13,38,27.30
2020,07,27,13,39,27.20
2020,07,27,13,40,27.20
2020,07,27,13,41,27.20
2020,07,27,13,42,27.20
2020,07,27,13,43,27.10
2020,07,27,13,44,27.00
2020,07,27,13,45,27.10
2020,07,27,13,46,27.10
2020,07,27,13,47,27.10
2020,07,27,13,48,27.10
2020,07,27,13,49,27.10
2020,07,27,13,50,27.10
2020,07,27,13,51,27.20
2020,07,27,13,52,27.20
2020,07,27,13,53,27.30
2020,07,27,13,54,27.30
2020,07,27,13,55,27.30
2020,07,27,13,56,27.30
2020,07,27,13,57,27.40
2020,07,27,13,58,27.40
2020,07,27,13,59,27.40
2020,07,27,14,00,27.60
2020,07,27,14,01,27.60
2020,07,27,14,02,27.70
2020,07,27,14,03,27.70
2020,07,27,14,04,27.70
2020,07,27,14,05,27.70
2020,07,27,14,06,27.70
2020,07,27,14,07,27.70
2020,07,27,14,08,27.80
2020,07,27,14,09,28.00
2020,07,27,14,10,28.10
2020,07,27,14,11,28.20
2020,07,27,14,12,28.10
2020,07,27,14,13,28.10
2020,07,27,14,14,28.10
2020,07,27,14,15,28.10
2020,07,27,14,16,28.20
2020,07,27,14,17,28.40
2020,07,27,14,18,28.40
2020,07,27,14,19,28.50
2020,07,27,14,20,28.60
2020,07,27,14,21,28.60
2020,07,27,14,22,28.50
2020,07,27,14,23,28.40
2020,07,27,14,24,28.40
2020,07,27,14,25,28.40
2020,07,27,14,26,28.40
2020,07,27,14,27,28.40
2020,07,27,14,28,28.40
2020,07,27,14,29,28.40
2020,07,27,14,30,28.40
2020,07,27,14,31,28.30
2020,07,27,14,32,28.30
2020,07,27,14,33,28.30
2020,07,27,14,34,28.40
2020,07,27,14,35,28.30
2020,07,27,14,36,28.20
2020,07,27,14,37,28.20
2020,07,27,14,38,28.20
2020,07,27,14,39,28.20
2020,07,27,14,40,28.10
2020,07,27,14,41,28.00
2020,07,27,14,42,28.00
2020,07,27,14,43,28.00
2020,07,27,14,44,28.10
2020,07,27,14,45,28.20
2020,07,27,14,46,28.20
2020,07,27,14,47,28.20
2020,07,27,14,48,28.10
2020,07,27,14,49,28.10
2020,07,27,14,50,28.00
2020,07,27,14,51,28.10
2020,07,27,14,52,28.20
2020,07,27,14,53,28.20
2020,07,27,14,54,28.00
2020,07,27,14,55,28.00
2020,07,27,14,56,28.00
2020,07,27,14,57,27.90
2020,07,27,14,58,27.80
2020,07,27,14,59,27.80
2020,07,27,15,00,27.80
2020,07,27,15,01,27.80
2020,07,27,15,02,27.90
2020,07,27,15,03,28.00
2020,07,27,15,04,28.10
2020,07,27,15,05,28.20
2020,07,27,15,06,28.20
2020,07,27,15,07,28.10
2020,07,27,15,08,28.10
2020,07,27,15,09,28.00
2020,07,27,15,10,28.00
2020,07,27,15,11,27.90
2020,07,27,15,12,27.90
2020,07,27,15,13,27.80
2020,07,27,15,14,27.90
2020,07,27,15,15,27.90
2020,07,27,15,16,28.00
2020,07,27,15,17,28.00
2020,07,27,15,18,28.00
2020,07,27,15,19,28.10
2020,07,27,15,20,28.10
2020,07,27,15,21,28.20
2020,07,27,15,22,28.30
2020,07,27,15,23,28.50
2020,07,27,15,24,28.60
2020,07,27,15,25,28.80
2020,07,27,15,26,28.90
2020,07,27,15,27,29.00
2020,07,27,15,28,29.10
2020,07,27,15,29,29.20
2020,07,27,15,30,29.30
2020,07,27,15,31,29.30
2020,07,27,15,32,29.20
2020,07,27,15,33,29.20
2020,07,27,15,34,29.20
2020,07,27,15,35,29.20
2020,07,27,15,36,29.20
2020,07,27,15,37,29.10
2020,07,27,15,38,29.10
2020,07,27,15,39,29.10
2020,07,27,15,40,29.20
2020,07,27,15,41,29.30
2020,07,27,15,42,29.30
2020,07,27,15,43,29.40
2020,07,27,15,44,29.30
2020,07,27,15,45,29.30
2020,07,27,15,46,29.30
2020,07,27,15,47,29.30
2020,07,27,15,48,29.40
2020,07,27,15,49,29.40
2020,07,27,15,50,29.40
2020,07,27,15,51,29.40
2020,07,27,15,52,29.40
2020,07,27,15,53,29.50
2020,07,27,15,54,29.50
2020,07,27,15,55,29.60
2020,07,27,15,56,29.60
2020,07,27,15,57,29.50
2020,07,27,15,58,29.60
2020,07,27,15,59,29.60
2020,07,27,16,00,29.70
2020,07,27,16,01,29.70
2020,07,27,16,02,29.70
2020,07,27,16,03,29.70
2020,07,27,16,04,29.70
2020,07,27,16,05,29.60
2020,07,27,16,06,29.60
2020,07,27,16,07,29.60
2020,07,27,16,08,29.60
2020,07,27,16,09,29.60
2020,07,27,16,10,29.60
2020,07,27,16,11,29.60
2020,07,27,16,12,29.50
2020,07,27,16,13,29.60
2020,07,27,16,14,29.60
2020,07,27,16,15,29.70
2020,07,27,16,16,29.80
2020,07,27,16,17,29.80
2020,07,27,16,18,29.90
2020,07,27,16,19,29.90
2020,07,27,16,20,29.90
2020,07,27,16,21,29.90
2020,07,27,16,22,29.80
2020,07,27,16,23,29.70
2020,07,27,16,24,29.70
2020,07,27,16,25,29.70
2020,07,27,16,26,29.70
2020,07,27,16,27,29.70
2020,07,27,16,28,29.50
2020,07,27,16,29,29.40
2020,07,27,16,30,29.40
2020,07,27,16,31,29.40
2020,07,27,16,32,29.40
2020,07,27,16,33,29.30
2020,07,27,16,34,29.20
2020,07,27,16,35,29.20
2020,07,27,16,36,29.20
2020,07,27,16,37,29.30
2020,07,27,16,38,29.40
2020,07,27,16,39,29.50
2020,07,27,16,40,29.60
2020,07,27,16,41,29.70
2020,07,27,16,42,29.70
2020,07,27,16,43,29.70
2020,07,27,16,44,29.80
2020,07,27,16,45,29.80
2020,07,27,16,46,29.80
2020,07,27,16,47,29.90
2020,07,27,16,48,29.80
2020,07,27,16,49,29.80
2020,07,27,16,50,29.70
2020,07,27,16,51,29.60
2020,07,27,16,52,29.40
2020,07,27,16,53,29.30
2020,07,27,16,54,29.30
2020,07,27,16,55,29.20
2020,07,27,16,56,29.10
2020,07,27,16,57,29.00
2020,07,27,16,58,28.90
2020,07,27,16,59,28.90
2020,07,27,17,00,28.90
2020,07,27,17,01,28.90
2020,07,27,17,02,28.90
2020,07,27,17,03,28.90
2020,07,27,17,04,28.90
2020,07,27,17,05,28.80
2020,07,27,17,06,28.70
2020,07,27,17,07,28.60
2020,07,27,17,08,28.60
2020,07,27,17,09,28.40
2020,07,27,17,10,28.40
2020,07,27,17,11,28.40
2020,07,27,17,12,28.40
2020,07,27,17,13,28.40
2020,07,27,17,14,28.40
2020,07,27,17,15,28.40
2020,07,27,17,16,28.30
2020,07,27,17,17,28.40
2020,07,27,17,18,28.50
2020,07,27,17,19,28.60